Regional Weather Roundup
Issued by NWS Nashville, TN

Home | Current Version | Previous Version | Text Only | Print | Product List | Glossary On
Versions: 1 2 3 4 5 6 7 8 9 10 11 12 13 14 15 16 17 18 19 20 21 22 23 24 25 26 27
000
ASUS44 KOHX 230110
RWROHX
MIDDLE TENNESSEE HOURLY WEATHER ROUNDUP
NATIONAL WEATHER SERVICE NASHVILLE TN
800 PM CDT TUE AUG 22 2017

NOTE: "FAIR" INDICATES FEW OR NO CLOUDS BELOW 12,000 FEET WITH
NO SIGNIFICANT WEATHER AND/OR OBSTRUCTIONS TO VISIBILITY.

* THESE REPORTS ARE NOT UNDER NWS QUALITY CONTROL AND MAY NOT
  REPORT WEATHER SUCH AS PRECIPITATION AND FOG.


TNZ005>011-023>034-057-059-062>066-078-080-230200
...NORTHERN MIDDLE TENNESSEE...

CITY           SKY/WX    TMP DP  RH WIND       PRES   REMARKS
CLARKSVILLE    CLOUDY    73  70  90 CALM      29.97S
CROSSVILLE     CLEAR     76  67  73 W5        30.03S
GALLATIN       CLOUDY    73  72  94 CALM      29.97S
DICKSON          N/A     70  70 100 SW3       29.99S
LEBANON        CLOUDY    75  71  87 S8        29.94R
NASHVILLE      TSTM      74  72  93 S7        29.98F
PORTLAND       CLOUDY    73  72  94 CALM      29.96S
SMYRNA         TSTM      73  73 100 CALM      30.00R
SPARTA           N/A     77  75  94 S5        29.95F
SPRINGFIELD    CLOUDY    72  72 100 NW5       29.95S FOG
WEST NASHVILLE CLOUDY    73  73 100 W8        29.94F
$$
TNZ056-058-060-061-075>077-079-093>097-230200
...SOUTHERN MIDDLE TENNESSEE...

CITY           SKY/WX    TMP DP  RH WIND       PRES   REMARKS
COLUMBIA       CLOUDY    72  72 100 SW7       29.98R FOG
FAYETTEVILLE   CLEAR     81  72  74 SW3       29.98S
MCMINNVILLE    CLEAR     79  72  78 CALM      29.99S
MURFREESBORO   CLOUDY    86  69  56 SW14      29.95R HX  90
PULASKI        CLEAR     82  73  74 SW5       29.97R
SHELBYVILLE    PTCLDY    79  72  78 SW3       29.97R
TULLAHOMA        N/A     79  68  69 SW6       30.01S
WINCHESTER     CLEAR     81  72  74 CALM      30.00R
$$


...KEY TO REMARKS...
VSB - VISIBILITY IN MILES
WCI - WIND CHILL INDEX
HX  - HEAT INDEX





USA.gov is the U.S. government's official web portal to all federal, state and local government web resources and services.